Newport News, VA

12:42 AM EDT on May 26, 2017 (GMT -0400)
Newport News-Williamsburg International

Weather History for KPHF - July, 2013

Change the Weather History Date:

Tuesday, July 2, 2013

  Actual Average Record
Temperature  
Mean Temperature 83 °F -  
Max Temperature 91 °F 88 °F 100 °F (1956)
Min Temperature 75 °F 69 °F 53 °F (2001)
Cooling Degree Days 18    
Growing Degree Days 33 (Base 50)    
Moisture  
Dew Point 70 °F    
Average Humidity 74    
Maximum Humidity 83    
Minimum Humidity 50    
Precipitation  
Precipitation 0.12 in - - ()
Sea Level Pressure  
Sea Level Pressure 30.13 in    
Wind  
Wind Speed 9 mph (SSW)    
Max Wind Speed 20 mph    
Max Gust Speed 36 mph    
Visibility 9 miles    
Events Rain    
Averages and records for this station are not official NWS values.
T = Trace of Precipitation, MM = Missing Value Source: NWS Daily Summary

Daily Weather History Graph

Daily Weather History Graph

Search for Another Location

Airport or City:

Trip Planner

Search our weather history database for the weather conditions in past years. The results will help you decide how hot, cold, wet, or windy it might be!

Date:

Astronomy

Jul. 02, 2013 Rise Set
Actual Time 5:50 AM EDT 8:29 PM EDT
Civil Twilight 5:19 AM EDT 9:00 PM EDT
Nautical Twilight 4:41 AM EDT 9:38 PM EDT
Astronomical Twilight 3:58 AM EDT 10:21 PM EDT
Moon 1:47 AM EDT (7/2) 3:44 PM EDT (7/2)
Length of Visible Light 15h 41m
Length of Day
14h 39m
Waning Crescent, 26% of the Moon is Illuminated
Jul 2
Waning Crescent
Jul 8
New
Jul 15
First Quarter
Jul 22
Full
Jul 29
Last Quarter

Hourly Weather History & Observations

Time (EDT) Temp. Heat Index Dew Point Humidity Pressure Visibility Wind Dir Wind Speed Gust Speed Precip Events Conditions
12:33 AM 78.8 °F - 69.8 °F 74% 30.05 in 10.0 mi SSW 8.1 mph - N/A   Partly Cloudy
12:54 AM 78.1 °F - 70.0 °F 76% 30.05 in 10.0 mi SSW 8.1 mph - N/A   Clear
1:31 AM 78.8 °F - 69.8 °F 74% 30.05 in 10.0 mi South 6.9 mph - N/A   Mostly Cloudy
1:54 AM 78.1 °F - 70.0 °F 76% 30.04 in 10.0 mi South 8.1 mph - N/A   Scattered Clouds
2:10 AM 78.8 °F - 69.8 °F 74% 30.05 in 10.0 mi South 6.9 mph - N/A   Mostly Cloudy
2:38 AM 78.8 °F - 69.8 °F 74% 30.06 in 10.0 mi South 8.1 mph - N/A   Overcast
2:54 AM 78.1 °F - 70.0 °F 76% 30.06 in 10.0 mi South 8.1 mph - N/A   Overcast
3:38 AM 78.8 °F - 69.8 °F 74% 30.06 in 10.0 mi South 8.1 mph - N/A   Overcast
3:54 AM 78.1 °F - 70.0 °F 76% 30.06 in 10.0 mi South 9.2 mph - N/A   Overcast
4:54 AM 79.0 °F - 70.0 °F 74% 30.06 in 10.0 mi South 10.4 mph - N/A   Scattered Clouds
5:31 AM 78.8 °F - 69.8 °F 74% 30.07 in 10.0 mi South 8.1 mph - 0.00 in   Overcast
5:54 AM 78.1 °F - 70.0 °F 76% 30.09 in 9.0 mi SSW 12.7 mph - 0.01 in Rain Light Rain
6:09 AM 78.8 °F - 71.6 °F 78% 30.09 in 10.0 mi SSW 8.1 mph - 0.00 in   Mostly Cloudy
6:54 AM 78.1 °F - 70.0 °F 76% 30.11 in 10.0 mi SSW 10.4 mph - 0.00 in   Mostly Cloudy
7:24 AM 78.8 °F - 71.6 °F 78% 30.12 in 10.0 mi South 12.7 mph - N/A   Overcast
7:54 AM 78.1 °F - 70.0 °F 76% 30.13 in 10.0 mi SSW 12.7 mph - N/A   Overcast
8:16 AM 78.8 °F - 71.6 °F 78% 30.14 in 10.0 mi South 11.5 mph - N/A   Mostly Cloudy
9:23 AM 80.6 °F 84.6 °F 71.6 °F 74% 30.15 in 10.0 mi SW 10.4 mph - N/A   Overcast
10:18 AM 82.4 °F 87.2 °F 71.6 °F 70% 30.16 in 10.0 mi SSW 10.4 mph - N/A   Scattered Clouds
10:29 AM 82.4 °F 87.2 °F 71.6 °F 70% 30.16 in 10.0 mi SSW 12.7 mph - N/A   Mostly Cloudy
10:54 AM 84.0 °F 89.6 °F 72.0 °F 67% 30.16 in 10.0 mi SSW 11.5 mph - N/A   Scattered Clouds
11:54 AM 84.9 °F 90.1 °F 71.1 °F 63% 30.16 in 10.0 mi SW 13.8 mph - 0.00 in   Scattered Clouds
12:54 PM 86.0 °F 91.5 °F 71.1 °F 61% 30.16 in 10.0 mi SSW 12.7 mph 20.7 mph N/A   Scattered Clouds
1:54 PM 90.0 °F 96.4 °F 71.1 °F 54% 30.14 in 10.0 mi South 9.2 mph - 0.00 in   Scattered Clouds
2:54 PM 91.0 °F 96.6 °F 70.0 °F 50% 30.14 in 10.0 mi SSE 12.7 mph 19.6 mph N/A   Partly Cloudy
3:35 PM 75.2 °F - 68.0 °F 78% 30.21 in 8.0 mi WSW 11.5 mph 32.2 mph 0.03 in Rain Light Rain
3:50 PM 75.2 °F - 68.0 °F 78% 30.21 in 1.8 mi WSW 18.4 mph 35.7 mph 0.14 in Rain Heavy Rain
4:02 PM 75.2 °F - 68.0 °F 78% 30.20 in 3.0 mi WSW 19.6 mph 27.6 mph 0.02 in Rain Light Rain
4:54 PM 75.9 °F - 69.1 °F 79% 30.20 in 10.0 mi West 11.5 mph - 0.03 in   Scattered Clouds
5:54 PM 75.9 °F - 69.1 °F 79% 30.18 in 4.0 mi West 6.9 mph - 0.05 in Rain Light Rain
6:54 PM 75.9 °F - 70.0 °F 82% 30.20 in 10.0 mi SE 6.9 mph - 0.03 in   Scattered Clouds
7:10 PM 77.0 °F - 69.8 °F 78% 30.21 in 10.0 mi SE 3.5 mph - N/A   Partly Cloudy
7:54 PM 75.9 °F - 70.0 °F 82% 30.20 in 10.0 mi SE 4.6 mph - N/A   Clear
8:04 PM 75.2 °F - 69.8 °F 83% 30.20 in 10.0 mi ESE 4.6 mph - N/A   Scattered Clouds
8:54 PM 75.9 °F - 70.0 °F 82% 30.21 in 10.0 mi Calm Calm - N/A   Clear
9:54 PM 75.9 °F - 70.0 °F 82% 30.22 in 10.0 mi Calm Calm - N/A   Clear
11:54 PM 75.9 °F - 70.0 °F 82% 30.22 in 10.0 mi South 3.5 mph - N/A   Clear